Location: Altmatt
(47.1333°N, 8.7000°E)
Time: 18:14:59
(UTC+00:00)

Helios 1A - Pass Details

Date: 13 July 2020
Orbit: 587 x 600 km, 98.2° (Epoch: 07 August)

Event Time Altitude Azimuth Distance (km) Brightness Sun altitude
Exits shadow 23:02:13 46° 117° (ESE) 802 3.3 -20.9°
Maximum altitude 23:03:05 56° 72° (ENE) 706 3.3 -20.9°
Drops below altitude 10° 23:07:11 10° 354° (N) 1,928 6.8 -21.0°
Sets 23:09:23 0° 351° (N) 2,836 8.0 -21.1°
